contact:dominique.lefevre@mio.osupytheas.fr, maurice.libes@osupytheas.fr, didier.mallarino@osupytheas.fr
Project:EMSO http://www.emso-fr.org/EMSO-France
Depth: 2436.0 m
Title:EMSO Ligure Ouest : Data MII capteur AQUADOPP
Date,Latitude,Longitude,X_East,Y_North,Z_Up,Amplitude_X,Amplitude_Y,Amplitude_Z,Batterie,SoundSpeed,Heading,Pitch,Roll,Pressure,TIS,Speed,Direction
, degrees North, degrees East, m.s-1, m.s-1,m.s-1, 1, 1, 1, Volt, m.s-1, degree, degree, degree, dbar, degree_C, m.s-1, degree
2021-10-04T00:04:03,42.805,6.029,0.034,-0.014,-0.016,102.0,102.0,100.0,13.4,1505.2,325.3,-0.8,1.8,2470.585,13.28,0.036,112.4
2021-10-04T00:07:03,42.805,6.029,0.021,-0.025,-0.004,102.0,102.0,101.0,13.3,1505.2,330.8,-0.7,1.8,2470.578,13.28,0.032,140.0
2021-10-04T00:10:03,42.805,6.029,0.037,-0.03,0.0,102.0,102.0,102.0,13.4,1505.2,328.6,-0.8,1.8,2470.552,13.28,0.047,129.0
2021-10-04T00:13:03,42.805,6.029,0.041,-0.012,0.004,101.0,103.0,101.0,13.4,1505.2,326.0,-0.7,1.9,2470.554,13.28,0.042,106.3
2021-10-04T00:16:03,42.805,6.029,0.034,-0.038,-0.026,101.0,101.0,102.0,13.4,1505.2,327.2,-0.7,1.8,2470.574,13.28,0.05,138.2
2021-10-04T00:19:03,42.805,6.029,0.014,-0.027,-0.014,102.0,101.0,101.0,13.4,1505.2,331.1,-0.7,1.8,2470.591,13.28,0.03,152.6
2021-10-04T00:22:03,42.805,6.029,0.059,-0.024,-0.003,102.0,102.0,101.0,13.3,1505.2,329.7,-0.8,1.8,2470.555,13.28,0.063,112.1
2021-10-04T00:25:03,42.805,6.029,0.035,-0.041,0.005,102.0,102.0,101.0,13.4,1505.2,326.6,-0.8,1.8,2470.54,13.28,0.053,139.5
2021-10-04T00:28:03,42.805,6.029,0.046,-0.02,0.006,102.0,102.0,101.0,13.3,1505.2,327.3,-0.8,1.8,2470.536,13.28,0.05,113.5
2021-10-04T00:31:03,42.805,6.029,0.043,-0.043,-0.011,103.0,101.0,100.0,13.4,1505.2,328.4,-0.8,1.8,2470.531,13.28,0.06,135.0
2021-10-04T00:34:03,42.805,6.029,0.019,-0.038,-0.012,103.0,103.0,100.0,13.4,1505.2,327.2,-0.8,1.8,2470.596,13.28,0.042,153.4
2021-10-04T00:37:03,42.805,6.029,0.032,-0.023,-0.014,102.0,101.0,102.0,13.4,1505.2,325.6,-0.7,1.8,2470.575,13.28,0.039,125.7
2021-10-04T00:40:03,42.805,6.029,0.04,-0.03,-0.003,102.0,102.0,101.0,13.4,1505.2,329.6,-0.8,1.8,2470.564,13.28,0.05,126.9
2021-10-04T00:43:03,42.805,6.029,0.023,-0.032,-0.006,103.0,103.0,101.0,13.4,1505.2,330.0,-0.8,1.8,2470.554,13.28,0.039,144.3
2021-10-04T00:46:03,42.805,6.029,0.014,-0.023,0.002,102.0,103.0,101.0,13.4,1505.2,330.0,-0.7,1.8,2470.589,13.28,0.026,148.7
2021-10-04T00:49:03,42.805,6.029,0.011,-0.052,-0.001,102.0,102.0,101.0,13.4,1505.2,331.5,-0.7,1.8,2470.589,13.28,0.053,168.1
2021-10-04T00:52:03,42.805,6.029,0.024,-0.039,-0.007,102.0,103.0,101.0,13.4,1505.2,329.2,-0.7,1.8,2470.591,13.28,0.045,148.4
2021-10-04T00:55:03,42.805,6.029,0.032,-0.016,0.01,102.0,102.0,100.0,13.3,1505.2,327.3,-0.8,1.8,2470.577,13.28,0.035,116.6
2021-10-04T00:58:03,42.805,6.029,0.031,-0.044,-0.003,101.0,102.0,100.0,13.4,1505.2,327.3,-0.7,1.8,2470.556,13.28,0.053,144.8
2021-10-04T01:04:03,42.805,6.029,0.027,-0.041,-0.002,104.0,105.0,104.0,13.3,1505.2,327.9,-0.8,1.8,2470.589,13.28,0.049,146.6
2021-10-04T01:07:03,42.805,6.029,0.046,-0.037,0.011,102.0,102.0,102.0,13.4,1505.2,330.3,-0.8,1.8,2470.594,13.28,0.059,128.8
2021-10-04T01:10:03,42.805,6.029,0.045,-0.067,-0.018,102.0,102.0,101.0,13.4,1505.2,329.1,-0.8,1.8,2470.576,13.28,0.08,146.1
2021-10-04T01:13:03,42.805,6.029,0.053,-0.043,-0.001,103.0,101.0,101.0,13.4,1505.2,328.0,-0.7,1.8,2470.545,13.28,0.068,129.1
2021-10-04T01:16:03,42.805,6.029,0.064,-0.052,-0.01,101.0,102.0,102.0,13.4,1505.2,328.1,-0.7,1.8,2470.61,13.28,0.082,129.1
2021-10-04T01:19:03,42.805,6.029,0.048,-0.037,0.0,101.0,102.0,101.0,13.4,1505.2,330.5,-0.8,1.8,2470.578,13.28,0.06,127.6
2021-10-04T01:22:03,42.805,6.029,0.026,-0.037,0.0,102.0,101.0,101.0,13.4,1505.2,327.3,-0.7,1.8,2470.557,13.28,0.045,144.9
2021-10-04T01:25:03,42.805,6.029,0.032,-0.036,-0.006,102.0,101.0,101.0,13.4,1505.2,330.0,-0.7,1.8,2470.574,13.28,0.048,138.4
2021-10-04T01:28:03,42.805,6.029,0.025,-0.029,0.022,100.0,102.0,101.0,13.4,1505.2,330.8,-0.8,1.8,2470.595,13.28,0.038,139.2
2021-10-04T01:31:03,42.805,6.029,0.044,-0.02,0.01,102.0,103.0,100.0,13.4,1505.2,325.8,-0.8,1.8,2470.597,13.28,0.048,114.4
2021-10-04T01:34:03,42.805,6.029,0.051,-0.035,0.007,103.0,102.0,100.0,13.3,1505.2,326.6,-0.7,1.8,2470.598,13.28,0.061,124.5
2021-10-04T01:37:03,42.805,6.029,0.02,-0.02,-0.015,103.0,102.0,101.0,13.4,1505.2,327.8,-0.8,1.8,2470.564,13.28,0.028,135.0
2021-10-04T01:40:03,42.805,6.029,0.028,-0.025,-0.001,103.0,101.0,101.0,13.4,1505.2,327.2,-0.8,1.8,2470.587,13.28,0.037,131.8
2021-10-04T01:43:03,42.805,6.029,0.035,-0.04,0.002,102.0,102.0,102.0,13.4,1505.2,327.8,-0.7,1.8,2470.617,13.28,0.053,138.8
2021-10-04T01:46:03,42.805,6.029,0.018,-0.021,-0.023,102.0,102.0,101.0,13.3,1505.2,328.8,-0.8,1.8,2470.586,13.28,0.027,139.4
2021-10-04T01:49:03,42.805,6.029,0.041,-0.032,0.003,102.0,102.0,101.0,13.4,1505.2,329.8,-0.8,1.8,2470.575,13.28,0.052,128.0
2021-10-04T01:52:03,42.805,6.029,0.049,-0.046,-0.025,102.0,102.0,101.0,13.3,1505.2,326.2,-0.8,1.8,2470.597,13.28,0.067,133.2
2021-10-04T01:55:03,42.805,6.029,0.048,-0.038,-0.004,103.0,102.0,100.0,13.4,1505.2,330.1,-0.8,1.7,2470.566,13.28,0.061,128.4
2021-10-04T01:58:03,42.805,6.029,0.044,-0.023,-0.01,102.0,102.0,100.0,13.4,1505.2,329.1,-0.8,1.8,2470.594,13.28,0.049,117.6
2021-10-04T02:04:03,42.805,6.029,0.033,-0.036,-0.031,103.0,101.0,101.0,13.3,1505.2,329.6,-0.8,1.8,2470.624,13.28,0.048,137.5
2021-10-04T02:07:03,42.805,6.029,0.032,-0.029,-0.006,103.0,102.0,100.0,13.4,1505.2,328.7,-0.7,1.8,2470.601,13.28,0.043,132.2
2021-10-04T02:10:03,42.805,6.029,0.055,-0.047,0.011,103.0,103.0,100.0,13.4,1505.2,330.3,-0.7,1.8,2470.621,13.28,0.072,130.5
2021-10-04T02:13:03,42.805,6.029,0.03,-0.027,-0.007,102.0,103.0,101.0,13.4,1505.2,330.9,-0.8,1.8,2470.615,13.28,0.04,132.0
2021-10-04T02:16:03,42.805,6.029,0.04,-0.025,0.011,101.0,102.0,100.0,13.4,1505.2,327.0,-0.8,1.8,2470.652,13.28,0.047,122.0
2021-10-04T02:19:03,42.805,6.029,0.032,-0.02,0.016,102.0,103.0,100.0,13.4,1505.2,325.3,-0.7,1.8,2470.637,13.28,0.037,122.0
2021-10-04T02:22:03,42.805,6.029,0.029,-0.032,0.0,101.0,102.0,101.0,13.4,1505.2,325.6,-0.7,1.8,2470.603,13.28,0.043,137.8
2021-10-04T02:25:03,42.805,6.029,0.045,-0.038,0.013,102.0,102.0,100.0,13.3,1505.2,329.4,-0.7,1.8,2470.624,13.28,0.058,130.2
2021-10-04T02:28:03,42.805,6.029,0.034,-0.018,0.006,102.0,102.0,101.0,13.4,1505.2,329.5,-0.8,1.8,2470.629,13.28,0.038,117.9
2021-10-04T02:31:03,42.805,6.029,0.025,-0.014,0.009,104.0,102.0,100.0,13.3,1505.2,327.6,-0.7,1.8,2470.605,13.28,0.028,119.3
2021-10-04T02:34:03,42.805,6.029,0.029,-0.007,-0.007,103.0,102.0,101.0,13.4,1505.2,327.1,-0.8,1.8,2470.577,13.28,0.029,103.6
2021-10-04T02:37:03,42.805,6.029,0.015,-0.041,-0.032,103.0,102.0,100.0,13.4,1505.2,330.1,-0.8,1.8,2470.616,13.28,0.043,159.9
2021-10-04T02:40:03,42.805,6.029,0.032,-0.022,-0.002,103.0,101.0,101.0,13.4,1505.2,328.7,-0.8,1.9,2470.59,13.28,0.038,124.5
2021-10-04T02:43:03,42.805,6.029,0.021,-0.02,0.014,102.0,101.0,101.0,13.3,1505.2,327.2,-0.7,1.8,2470.567,13.28,0.028,133.6
2021-10-04T02:46:03,42.805,6.029,0.037,-0.019,0.005,103.0,101.0,101.0,13.4,1505.2,327.7,-0.7,1.8,2470.605,13.28,0.041,117.2
2021-10-04T02:49:03,42.805,6.029,0.05,-0.044,0.006,102.0,102.0,100.0,13.4,1505.2,327.3,-0.8,1.8,2470.593,13.28,0.066,131.3
2021-10-04T02:52:03,42.805,6.029,0.025,-0.029,-0.009,103.0,101.0,100.0,13.3,1505.2,330.1,-0.7,1.8,2470.609,13.28,0.038,139.2
2021-10-04T02:55:03,42.805,6.029,0.031,-0.023,0.023,103.0,100.0,100.0,13.3,1505.2,330.0,-0.8,1.8,2470.585,13.28,0.038,126.6
2021-10-04T02:58:03,42.805,6.029,0.023,-0.013,0.006,102.0,102.0,101.0,13.4,1505.2,328.2,-0.8,1.9,2470.608,13.28,0.026,119.5
2021-10-04T03:04:03,42.805,6.029,0.035,-0.01,-0.004,101.0,102.0,101.0,13.4,1505.2,327.6,-0.8,1.8,2470.675,13.28,0.036,105.9
2021-10-04T03:07:03,42.805,6.029,0.047,-0.042,0.016,101.0,101.0,102.0,13.4,1505.2,326.8,-0.8,1.8,2470.651,13.28,0.063,131.8
2021-10-04T03:10:03,42.805,6.029,0.07,-0.016,0.022,102.0,103.0,100.0,13.4,1505.2,330.5,-0.7,1.8,2470.623,13.28,0.071,102.9
2021-10-04T03:13:03,42.805,6.029,0.054,-0.03,-0.002,102.0,102.0,101.0,13.4,1505.2,325.8,-0.7,1.8,2470.682,13.28,0.061,119.1
2021-10-04T03:16:03,42.805,6.029,0.03,-0.012,0.015,102.0,103.0,101.0,13.4,1505.2,328.7,-0.7,1.8,2470.655,13.28,0.032,111.8
2021-10-04T03:19:03,42.805,6.029,0.034,-0.02,-0.001,102.0,101.0,101.0,13.4,1505.2,329.1,-0.8,1.8,2470.619,13.28,0.039,120.5
2021-10-04T03:22:03,42.805,6.029,0.031,-0.035,0.019,103.0,101.0,100.0,13.4,1505.2,328.9,-0.7,1.8,2470.657,13.28,0.046,138.5
2021-10-04T03:25:03,42.805,6.029,0.012,-0.049,-0.036,101.0,101.0,102.0,13.4,1505.2,329.5,-0.7,1.8,2470.648,13.28,0.05,166.2
2021-10-04T03:28:03,42.805,6.029,0.037,-0.029,-0.012,102.0,101.0,101.0,13.4,1505.2,327.2,-0.8,1.8,2470.648,13.28,0.047,128.1
2021-10-04T03:31:03,42.805,6.029,0.051,-0.041,0.021,102.0,102.0,100.0,13.4,1505.2,331.2,-0.8,1.9,2470.648,13.28,0.065,128.8
2021-10-04T03:34:03,42.805,6.029,0.035,-0.033,0.029,102.0,101.0,101.0,13.4,1505.2,329.0,-0.8,1.8,2470.601,13.28,0.048,133.3
2021-10-04T03:37:03,42.805,6.029,0.048,-0.014,0.018,102.0,102.0,101.0,13.3,1505.2,328.6,-0.8,1.8,2470.613,13.28,0.05,106.3
2021-10-04T03:40:03,42.805,6.029,0.034,-0.031,0.004,102.0,102.0,100.0,13.3,1505.2,325.6,-0.7,1.8,2470.671,13.28,0.046,132.4
2021-10-04T03:43:03,42.805,6.029,0.034,-0.022,0.009,103.0,101.0,101.0,13.4,1505.2,325.5,-0.8,1.8,2470.654,13.28,0.04,122.9
2021-10-04T03:46:03,42.805,6.029,0.043,-0.023,0.014,102.0,102.0,101.0,13.4,1505.2,327.5,-0.7,1.8,2470.63,13.28,0.048,118.1
2021-10-04T03:49:03,42.805,6.029,0.041,-0.025,0.007,102.0,103.0,100.0,13.4,1505.2,325.5,-0.8,1.8,2470.658,13.28,0.048,121.4
2021-10-04T03:52:03,42.805,6.029,0.027,-0.023,0.005,103.0,101.0,101.0,13.3,1505.2,327.3,-0.8,1.8,2470.629,13.28,0.035,130.4
2021-10-04T03:55:03,42.805,6.029,0.027,-0.037,-0.006,103.0,101.0,100.0,13.4,1505.2,329.3,-0.8,1.8,2470.657,13.28,0.045,143.9
2021-10-04T03:58:03,42.805,6.029,0.025,-0.035,0.015,101.0,102.0,100.0,13.4,1505.2,325.5,-0.8,1.8,2470.682,13.28,0.043,144.5
2021-10-04T04:04:03,42.805,6.029,0.035,-0.028,0.024,103.0,101.0,101.0,13.3,1505.2,328.4,-0.7,1.8,2470.681,13.28,0.044,128.7
2021-10-04T04:07:03,42.805,6.029,0.046,-0.029,0.0,101.0,102.0,100.0,13.3,1505.2,328.2,-0.8,1.8,2470.692,13.28,0.054,122.2
2021-10-04T04:10:03,42.805,6.029,0.01,-0.024,0.014,101.0,102.0,101.0,13.4,1505.2,329.9,-0.8,1.8,2470.671,13.28,0.026,157.4
2021-10-04T04:13:03,42.805,6.029,0.033,-0.041,0.032,104.0,102.0,101.0,13.3,1505.2,328.2,-0.8,1.8,2470.681,13.28,0.052,141.2
2021-10-04T04:16:03,42.805,6.029,0.038,-0.031,0.02,102.0,102.0,100.0,13.3,1505.2,329.6,-0.8,1.8,2470.675,13.28,0.049,129.2
2021-10-04T04:19:03,42.805,6.029,0.028,-0.035,-0.015,102.0,102.0,101.0,13.3,1505.2,325.0,-0.8,1.8,2470.684,13.28,0.044,141.3
2021-10-04T04:22:03,42.805,6.029,0.041,-0.033,-0.023,102.0,102.0,101.0,13.4,1505.2,327.4,-0.8,1.8,2470.664,13.28,0.052,128.8
2021-10-04T04:25:03,42.805,6.029,0.058,-0.019,0.027,102.0,102.0,100.0,13.4,1505.2,328.4,-0.8,1.8,2470.7,13.28,0.061,108.1
2021-10-04T04:28:03,42.805,6.029,0.018,-0.026,0.021,103.0,101.0,101.0,13.4,1505.2,331.6,-0.7,1.8,2470.674,13.28,0.031,145.3
2021-10-04T04:31:03,42.805,6.029,0.025,-0.017,-0.009,102.0,102.0,101.0,13.3,1505.2,329.6,-0.8,1.8,2470.685,13.28,0.03,124.2
2021-10-04T04:34:03,42.805,6.029,0.03,-0.023,-0.013,102.0,102.0,101.0,13.4,1505.2,330.1,-0.8,1.8,2470.717,13.28,0.037,127.5
2021-10-04T04:37:03,42.805,6.029,0.032,-0.025,0.008,101.0,102.0,100.0,13.4,1505.2,329.6,-0.7,1.8,2470.648,13.28,0.04,128.0
2021-10-04T04:40:03,42.805,6.029,0.036,-0.044,-0.015,102.0,102.0,101.0,13.4,1505.2,327.4,-0.7,1.8,2470.674,13.28,0.056,140.7
2021-10-04T04:43:03,42.805,6.029,0.037,-0.047,0.013,102.0,102.0,101.0,13.4,1505.2,326.4,-0.7,1.8,2470.71,13.28,0.059,141.8
2021-10-04T04:46:03,42.805,6.029,0.02,-0.005,-0.013,102.0,102.0,101.0,13.4,1505.2,327.3,-0.7,1.8,2470.644,13.28,0.02,104.0
2021-10-04T04:49:03,42.805,6.029,0.033,-0.022,-0.031,102.0,101.0,102.0,13.4,1505.2,328.5,-0.7,1.8,2470.69,13.28,0.039,123.7
2021-10-04T04:52:03,42.805,6.029,0.046,-0.009,0.001,102.0,102.0,101.0,13.4,1505.2,329.9,-0.8,1.8,2470.71,13.28,0.046,101.1
2021-10-04T04:55:03,42.805,6.029,0.03,-0.022,0.021,102.0,103.0,101.0,13.4,1505.2,330.9,-0.7,1.8,2470.686,13.28,0.037,126.3
2021-10-04T04:58:03,42.805,6.029,0.042,-0.018,-0.021,102.0,101.0,101.0,13.4,1505.2,330.8,-0.8,1.8,2470.652,13.28,0.045,113.2
2021-10-04T05:04:03,42.805,6.029,0.02,-0.027,0.022,102.0,102.0,101.0,13.3,1505.2,330.0,-0.7,1.8,2470.771,13.28,0.033,143.5
2021-10-04T05:07:03,42.805,6.029,0.043,-0.043,-0.015,102.0,102.0,102.0,13.4,1505.2,329.4,-0.8,1.8,2470.696,13.28,0.06,135.0
2021-10-04T05:10:03,42.805,6.029,0.038,-0.023,0.0,102.0,103.0,101.0,13.4,1505.2,331.7,-0.8,1.8,2470.724,13.28,0.044,121.2
2021-10-04T05:13:03,42.805,6.029,0.039,-0.049,0.008,103.0,101.0,101.0,13.4,1505.2,327.8,-0.8,1.8,2470.712,13.28,0.062,141.5
2021-10-04T05:16:03,42.805,6.029,0.023,-0.021,0.013,102.0,102.0,100.0,13.4,1505.2,329.0,-0.7,1.8,2470.705,13.28,0.031,132.4
2021-10-04T05:19:03,42.805,6.029,0.048,-0.018,0.015,101.0,101.0,101.0,13.4,1505.2,326.3,-0.7,1.8,2470.732,13.28,0.051,110.6
2021-10-04T05:22:03,42.805,6.029,0.049,-0.037,0.042,101.0,102.0,102.0,13.3,1505.2,330.5,-0.7,1.8,2470.703,13.28,0.061,127.1
2021-10-04T05:25:03,42.805,6.029,0.039,-0.036,-0.013,101.0,101.0,102.0,13.4,1505.2,329.4,-0.7,1.8,2470.695,13.28,0.053,132.7
2021-10-04T05:28:03,42.805,6.029,0.037,-0.032,-0.001,103.0,101.0,100.0,13.3,1505.2,327.1,-0.8,1.8,2470.693,13.28,0.048,130.9
2021-10-04T05:31:03,42.805,6.029,0.044,-0.028,0.003,102.0,101.0,101.0,13.3,1505.2,328.6,-0.7,1.8,2470.678,13.28,0.052,122.5
2021-10-04T05:34:03,42.805,6.029,0.021,-0.042,0.01,102.0,102.0,101.0,13.4,1505.2,328.6,-0.8,1.8,2470.659,13.28,0.046,153.4
2021-10-04T05:37:03,42.805,6.029,0.02,-0.022,0.016,102.0,102.0,101.0,13.4,1505.2,329.8,-0.7,1.8,2470.677,13.28,0.029,137.7
2021-10-04T05:40:03,42.805,6.029,0.03,-0.039,0.005,101.0,101.0,101.0,13.4,1505.2,328.6,-0.7,1.8,2470.673,13.28,0.049,142.4
2021-10-04T05:43:03,42.805,6.029,0.047,-0.033,-0.008,102.0,103.0,100.0,13.4,1505.2,328.1,-0.8,1.8,2470.704,13.28,0.057,125.1
2021-10-04T05:46:03,42.805,6.029,0.073,-0.028,0.011,102.0,102.0,102.0,13.3,1505.2,329.3,-0.8,1.9,2470.679,13.28,0.078,111.0
2021-10-04T05:49:03,42.805,6.029,0.017,-0.033,-0.008,101.0,102.0,101.0,13.3,1505.2,327.5,-0.7,1.8,2470.704,13.28,0.037,152.7
2021-10-04T05:52:03,42.805,6.029,0.034,-0.025,-0.001,102.0,102.0,101.0,13.4,1505.2,327.1,-0.8,1.9,2470.717,13.28,0.042,126.3
2021-10-04T05:55:03,42.805,6.029,0.029,-0.034,0.0,102.0,101.0,101.0,13.4,1505.2,331.4,-0.8,1.8,2470.728,13.28,0.044,139.5
2021-10-04T05:58:03,42.805,6.029,0.037,-0.009,0.036,103.0,101.0,101.0,13.4,1505.2,326.8,-0.7,1.8,2470.684,13.28,0.038,103.7
2021-10-04T06:04:03,42.805,6.029,0.04,-0.035,-0.013,102.0,101.0,102.0,13.4,1505.2,331.5,-0.7,1.8,2470.736,13.28,0.053,131.2
2021-10-04T06:07:03,42.805,6.029,0.035,-0.017,0.015,101.0,102.0,102.0,13.4,1505.2,325.3,-0.7,1.8,2470.702,13.28,0.038,115.9
2021-10-04T06:10:03,42.805,6.029,0.018,-0.027,0.02,102.0,102.0,102.0,13.4,1505.2,329.8,-0.8,1.8,2470.702,13.28,0.032,146.3
2021-10-04T06:13:03,42.805,6.029,0.038,-0.045,-0.013,103.0,101.0,100.0,13.4,1505.2,327.9,-0.7,1.8,2470.706,13.28,0.058,139.8
2021-10-04T06:16:03,42.805,6.029,0.048,-0.034,0.005,101.0,102.0,101.0,13.4,1505.2,327.7,-0.8,1.8,2470.703,13.28,0.058,125.3
2021-10-04T06:19:03,42.805,6.029,0.045,-0.043,0.003,101.0,101.0,100.0,13.4,1505.2,331.4,-0.7,1.8,2470.694,13.28,0.062,133.7
2021-10-04T06:22:03,42.805,6.029,0.025,-0.027,-0.048,103.0,102.0,101.0,13.4,1505.2,331.5,-0.8,1.8,2470.653,13.28,0.036,137.2
2021-10-04T06:25:03,42.805,6.029,0.058,-0.03,0.011,102.0,102.0,100.0,13.4,1505.2,327.7,-0.8,1.8,2470.705,13.28,0.065,117.4
2021-10-04T06:28:03,42.805,6.029,0.0,-0.033,-0.016,103.0,101.0,100.0,13.4,1505.2,328.0,-0.7,1.8,2470.705,13.28,0.033,180.0
2021-10-04T06:31:03,42.805,6.029,0.005,-0.023,-0.003,102.0,101.0,101.0,13.3,1505.2,327.4,-0.7,1.8,2470.695,13.28,0.023,167.7
2021-10-04T06:34:03,42.805,6.029,0.038,-0.028,-0.004,102.0,101.0,101.0,13.4,1505.2,330.0,-0.8,1.8,2470.702,13.28,0.047,126.4
2021-10-04T06:37:03,42.805,6.029,0.017,-0.01,0.018,102.0,101.0,101.0,13.4,1505.2,325.8,-0.7,1.8,2470.685,13.28,0.019,120.5
2021-10-04T06:40:03,42.805,6.029,0.047,-0.031,0.004,101.0,103.0,100.0,13.4,1505.2,328.0,-0.7,1.8,2470.71,13.28,0.056,123.4
2021-10-04T06:43:03,42.805,6.029,0.013,-0.023,0.005,101.0,102.0,102.0,13.3,1505.2,327.5,-0.8,1.9,2470.669,13.28,0.026,150.5
2021-10-04T06:46:03,42.805,6.029,0.04,-0.029,-0.011,100.0,102.0,102.0,13.4,1505.2,327.7,-0.7,1.8,2470.666,13.28,0.049,125.9
2021-10-04T06:49:03,42.805,6.029,0.032,-0.043,-0.003,102.0,103.0,100.0,13.4,1505.2,331.4,-0.7,1.8,2470.718,13.28,0.053,143.3
2021-10-04T06:52:03,42.805,6.029,0.026,-0.037,0.007,102.0,101.0,101.0,13.4,1505.2,325.4,-0.8,1.8,2470.649,13.28,0.045,144.9
2021-10-04T06:55:03,42.805,6.029,0.025,-0.02,-0.01,103.0,101.0,101.0,13.4,1505.2,331.8,-0.7,1.8,2470.659,13.28,0.032,128.7
2021-10-04T06:58:03,42.805,6.029,0.032,-0.022,-0.011,102.0,102.0,99.0,13.4,1505.2,326.8,-0.8,1.9,2470.666,13.28,0.038,124.5
2021-10-04T07:04:03,42.805,6.029,0.015,-0.034,0.012,103.0,102.0,100.0,13.4,1505.2,325.9,-0.8,1.8,2470.72,13.28,0.037,156.2
2021-10-04T07:07:03,42.805,6.029,0.045,-0.019,0.013,102.0,101.0,101.0,13.3,1505.2,327.0,-0.8,1.8,2470.733,13.28,0.048,112.9
2021-10-04T07:10:03,42.805,6.029,0.046,-0.032,0.011,101.0,102.0,101.0,13.4,1505.2,330.8,-0.8,1.8,2470.736,13.28,0.056,124.8
2021-10-04T07:13:03,42.805,6.029,0.032,-0.038,-0.019,101.0,100.0,100.0,13.3,1505.2,326.2,-0.7,1.8,2470.708,13.28,0.049,139.9
2021-10-04T07:16:03,42.805,6.029,0.039,-0.019,0.013,101.0,102.0,101.0,13.4,1505.2,328.7,-0.7,1.8,2470.688,13.28,0.043,116.0
2021-10-04T07:19:03,42.805,6.029,0.045,-0.031,-0.006,101.0,101.0,101.0,13.4,1505.2,329.3,-0.8,1.8,2470.684,13.28,0.054,124.6
2021-10-04T07:22:03,42.805,6.029,0.012,-0.017,0.013,102.0,100.0,100.0,13.3,1505.2,329.7,-0.8,1.8,2470.715,13.28,0.02,144.8
2021-10-04T07:25:03,42.805,6.029,0.025,-0.028,0.023,102.0,101.0,101.0,13.3,1505.2,328.6,-0.7,1.8,2470.702,13.28,0.037,138.2
2021-10-04T07:28:03,42.805,6.029,0.031,-0.025,0.001,101.0,102.0,101.0,13.4,1505.2,327.4,-0.7,1.8,2470.657,13.28,0.039,128.9
2021-10-04T07:31:03,42.805,6.029,0.041,-0.038,-0.011,102.0,100.0,100.0,13.4,1505.2,329.9,-0.7,1.8,2470.644,13.28,0.055,132.8
2021-10-04T07:34:03,42.805,6.029,0.031,-0.029,0.022,101.0,101.0,101.0,13.4,1505.2,326.3,-0.8,1.8,2470.697,13.28,0.042,133.1
2021-10-04T07:37:03,42.805,6.029,0.049,-0.025,0.005,103.0,101.0,101.0,13.3,1505.2,329.3,-0.7,1.8,2470.657,13.28,0.055,117.0
2021-10-04T07:40:03,42.805,6.029,0.05,-0.03,0.011,101.0,102.0,101.0,13.4,1505.2,327.6,-0.8,1.8,2470.663,13.28,0.058,121.0
2021-10-04T07:43:03,42.805,6.029,0.056,-0.022,0.01,102.0,102.0,100.0,13.4,1505.2,328.2,-0.8,1.8,2470.664,13.28,0.06,111.4
2021-10-04T07:46:03,42.805,6.029,0.039,-0.02,0.016,102.0,100.0,101.0,13.4,1505.2,328.9,-0.7,1.8,2470.682,13.28,0.043,117.1
2021-10-04T07:49:03,42.805,6.029,0.033,-0.014,-0.001,102.0,100.0,101.0,13.4,1505.2,330.6,-0.7,1.8,2470.62,13.28,0.035,113.0
2021-10-04T07:52:03,42.805,6.029,0.023,-0.037,-0.009,103.0,101.0,100.0,13.3,1505.2,327.5,-0.8,1.8,2470.63,13.28,0.043,148.1
2021-10-04T07:55:03,42.805,6.029,0.032,-0.017,0.003,102.0,101.0,101.0,13.4,1505.2,329.9,-0.8,1.8,2470.666,13.28,0.036,118.0
2021-10-04T07:58:03,42.805,6.029,0.034,-0.029,0.0,102.0,100.0,100.0,13.4,1505.2,328.3,-0.8,1.8,2470.681,13.28,0.044,130.5
2021-10-04T08:04:03,42.805,6.029,0.033,0.0,0.01,101.0,101.0,100.0,13.3,1505.2,329.1,-0.7,1.8,2470.683,13.28,0.033,90.0
2021-10-04T08:07:03,42.805,6.029,0.04,-0.035,-0.003,102.0,101.0,101.0,13.3,1505.2,326.9,-0.7,1.8,2470.648,13.28,0.053,131.2
2021-10-04T08:10:03,42.805,6.029,0.05,-0.024,-0.011,100.0,101.0,102.0,13.4,1505.2,325.5,-0.7,1.8,2470.707,13.28,0.055,115.6
2021-10-04T08:13:03,42.805,6.029,0.032,-0.014,-0.004,103.0,101.0,101.0,13.4,1505.2,328.4,-0.7,1.8,2470.645,13.28,0.034,113.6
2021-10-04T08:16:03,42.805,6.029,0.045,-0.025,0.008,101.0,103.0,101.0,13.3,1505.2,326.8,-0.8,1.8,2470.676,13.28,0.051,119.1
2021-10-04T08:19:03,42.805,6.029,0.027,-0.033,0.002,100.0,101.0,101.0,13.4,1505.2,327.7,-0.8,1.8,2470.646,13.28,0.042,140.7
2021-10-04T08:22:03,42.805,6.029,0.046,-0.015,-0.011,102.0,102.0,101.0,13.4,1505.2,326.3,-0.8,1.8,2470.656,13.28,0.048,108.1
2021-10-04T08:25:03,42.805,6.029,0.015,-0.02,-0.011,102.0,101.0,102.0,13.4,1505.2,329.0,-0.8,1.8,2470.651,13.28,0.025,143.1
2021-10-04T08:28:03,42.805,6.029,0.02,-0.017,0.02,102.0,102.0,101.0,13.4,1505.2,328.4,-0.8,1.9,2470.667,13.28,0.026,130.4
2021-10-04T08:31:03,42.805,6.029,0.024,-0.021,-0.022,101.0,101.0,101.0,13.4,1505.2,332.0,-0.7,1.9,2470.626,13.28,0.031,131.2
2021-10-04T08:34:03,42.805,6.029,0.051,-0.029,0.017,102.0,101.0,101.0,13.4,1505.2,330.6,-0.7,1.8,2470.64,13.28,0.058,119.6
2021-10-04T08:37:03,42.805,6.029,0.055,-0.017,0.033,101.0,102.0,101.0,13.4,1505.2,328.1,-0.8,1.9,2470.647,13.28,0.057,107.2
2021-10-04T08:40:03,42.805,6.029,0.036,-0.02,-0.011,103.0,101.0,100.0,13.4,1505.2,326.8,-0.8,1.8,2470.634,13.28,0.041,119.1
2021-10-04T08:43:03,42.805,6.029,0.045,-0.036,-0.017,103.0,103.0,99.0,13.4,1505.2,328.2,-0.8,1.8,2470.617,13.28,0.057,128.7
2021-10-04T08:46:03,42.805,6.029,0.016,-0.043,-0.011,102.0,101.0,101.0,13.4,1505.2,327.5,-0.8,1.8,2470.627,13.28,0.045,159.6
2021-10-04T08:49:03,42.805,6.029,0.036,-0.009,0.031,102.0,101.0,100.0,13.4,1505.2,328.1,-0.7,1.8,2470.627,13.28,0.037,104.0
2021-10-04T08:52:03,42.805,6.029,0.062,-0.03,0.01,101.0,102.0,100.0,13.4,1505.2,325.7,-0.8,1.8,2470.62,13.28,0.068,115.8
2021-10-04T08:55:03,42.805,6.029,0.033,-0.03,0.021,102.0,101.0,102.0,13.4,1505.2,328.4,-0.8,1.8,2470.609,13.28,0.044,132.3
2021-10-04T08:58:03,42.805,6.029,0.04,-0.019,0.0,102.0,102.0,100.0,13.4,1505.2,326.2,-0.7,1.8,2470.626,13.28,0.044,115.4
2021-10-04T09:04:03,42.805,6.029,0.052,-0.045,-0.007,102.0,101.0,100.0,13.4,1505.2,331.4,-0.8,1.8,2470.618,13.28,0.068,130.9
2021-10-04T09:07:03,42.805,6.029,0.039,-0.044,0.022,102.0,100.0,101.0,13.4,1505.2,329.7,-0.7,1.8,2470.629,13.28,0.058,138.4
2021-10-04T09:10:03,42.805,6.029,0.03,-0.03,0.008,103.0,100.0,101.0,13.3,1505.2,329.7,-0.8,1.8,2470.631,13.28,0.042,135.0
2021-10-04T09:13:03,42.805,6.029,0.043,-0.025,0.002,101.0,102.0,101.0,13.4,1505.2,329.3,-0.8,1.8,2470.655,13.28,0.049,120.2
2021-10-04T09:16:03,42.805,6.029,0.059,-0.038,-0.007,102.0,101.0,100.0,13.4,1505.2,331.4,-0.7,1.8,2470.635,13.28,0.07,122.8
2021-10-04T09:19:03,42.805,6.029,0.031,-0.028,0.002,101.0,101.0,101.0,13.3,1505.2,330.8,-0.7,1.8,2470.62,13.28,0.041,132.1
2021-10-04T09:22:03,42.805,6.029,0.045,-0.034,0.004,102.0,101.0,101.0,13.4,1505.2,329.6,-0.8,1.8,2470.613,13.28,0.056,127.1
2021-10-04T09:25:03,42.805,6.029,0.026,-0.03,-0.01,102.0,99.0,102.0,13.4,1505.2,329.1,-0.8,1.8,2470.635,13.28,0.039,139.1
2021-10-04T09:28:03,42.805,6.029,0.035,-0.032,0.017,102.0,101.0,100.0,13.3,1505.2,325.6,-0.7,1.8,2470.632,13.28,0.047,132.4
2021-10-04T09:31:03,42.805,6.029,0.047,-0.028,0.02,102.0,99.0,101.0,13.3,1505.2,327.0,-0.7,1.8,2470.589,13.28,0.054,120.8
2021-10-04T09:34:03,42.805,6.029,0.053,-0.033,-0.019,103.0,101.0,99.0,13.4,1505.2,329.0,-0.7,1.8,2470.611,13.28,0.062,121.9
2021-10-04T09:37:03,42.805,6.029,0.026,-0.027,-0.021,102.0,102.0,99.0,13.3,1505.2,326.2,-0.8,1.8,2470.59,13.28,0.037,136.1
2021-10-04T09:40:03,42.805,6.029,0.027,-0.029,0.011,101.0,101.0,101.0,13.4,1505.2,329.5,-0.7,1.8,2470.615,13.28,0.039,137.0
2021-10-04T09:43:03,42.805,6.029,0.027,-0.017,-0.003,101.0,101.0,101.0,13.4,1505.2,329.2,-0.7,1.8,2470.606,13.28,0.031,122.2
2021-10-04T09:46:03,42.805,6.029,0.043,-0.054,0.0,102.0,101.0,101.0,13.4,1505.2,328.5,-0.7,1.8,2470.565,13.28,0.069,141.5
2021-10-04T09:49:03,42.805,6.029,0.029,-0.028,-0.016,102.0,102.0,101.0,13.3,1505.2,329.2,-0.7,1.8,2470.594,13.28,0.04,134.0
2021-10-04T09:52:03,42.805,6.029,0.048,-0.042,-0.014,101.0,101.0,101.0,13.3,1505.2,327.7,-0.8,1.8,2470.589,13.28,0.063,131.2
2021-10-04T09:55:03,42.805,6.029,0.015,-0.021,-0.016,101.0,100.0,101.0,13.4,1505.2,327.3,-0.7,1.8,2470.59,13.28,0.025,144.5